SCP
0 0 0 0 0 0 0 0 0 0 1 1 1 1 1 0 0 0 0 0 0 0 0 0 0 0 0 0 0 0 0 0 0 0 0 0 0 0 0 0 0 0 0 0
0 0 0 0 0 0 0 0 0 1 1 1 1 1 1 0 0 0 0 0 0 0 0 0 0 0 0 0 0 0 0 0 0 0 0 0 0 0 0 0 0 0 0 0
0 0 0 0 0 0 0 0 0 1 1 1 1 1 0 0 0 0 0 0 0 0 0 0 0 0 0 0 0 0 0 0 0 0 0 0 0 0 0 0 0 0 0 0
0 0 0 0 0 0 0 0 0 1 1 1 1 0 0 0 0 0 0 0 0 0 0 0 0 0 0 0 0 0 0 0 0 0 0 0 0 0 0 0 0 0 0 0
0 0 0 0 0 0 0 0 0 0 0 0 0 0 0 0 0 0 0 0 0 0 0 0 0 0 0 0 0 0 0 0 0 0 0 0 0 0 0 0 0 0 0 0
0 0 0 0 0 0 0 0 0 0 0 0 0 0 0 0 0 0 0 0 0 0 0 0 0 0 0 0 0 0 0 0 0 0 0 0 0 0 0 0 0 0 0 0
0 0 0 0 0 0 0 0 0 0 0 0 0 0 0 0 0 0 0 0 0 0 0 0 0 0 0 0 0 0 0 0 0 0 0 0 0 0 0 0 0 0 0 0
0 0 0 0 0 0 0 0 0 0 0 0 0 0 0 0 0 0 0 0 0 0 0 0 0 0 0 0 0 0 0 0 0 0 0 0 0 0 0 0 0 0 0 0
0 0 0 0 0 0 0 0 0 0 0 0 0 0 0 0 0 0 0 0 0 0 0 0 0 0 0 0 0 0 0 0 0 0 0 0 0 0 0 0 0 0 0 0
0 0 0 0 0 0 0 0 0 0 0 0 0 0 0 0 0 0 0 0 0 0 0 0 0 0 0 0 0 0 0 0 0 0 0 0 0 0 0 0 0 0 0 0
0 0 0 0 0 0 0 0 0 0 0 0 0 0 0 0 0 0 0 0 0 0 0 0 0 0 0 0 0 0 0 0 0 0 0 0 0 0 0 0 0 0 0 0
0 0 0 0 0 0 0 0 0 0 0 0 0 0 0 0 0 0 0 0 0 0 0 0 0 0 0 0 0 0 0 0 0 0 0 0 0 0 0 0 0 0 0 0
0 0 0 0 0 0 0 0 0 0 0 0 0 0 0 0 0 0 0 0 0 0 0 0 0 0 0 0 0 0 0 0 0 0 0 0 0 0 0 0 0 0 0 0
0 0 0 0 0 0 0 0 0 0 0 0 0 0 0 0 0 0 0 0 0 0 0 0 0 0 0 0 0 0 0 0 0 0 0 0 0 0 0 0 0 0 0 0
0 0 0 0 0 0 0 0 0 0 0 0 0 0 0 0 0 0 0 0 0 0 0 0 0 0 0 0 0 0 0 0 0 0 0 0 0 0 0 0 0 0 0 0
0 0 0 0 0 0 0 0 0 0 0 0 0 0 0 0 0 0 0 0 0 0 0 0 0 0 0 0 0 0 0 0 0 0 0 0 0 0 0 -0 -0 0 0 0
0 0 0 0 0 0 0 0 0 0 0 0 0 0 0 0 0 0 0 0 0 0 0 0 0 -0 -0 -0 0 0 0 0 0 -0 -0 -0 -0 -0 -0 -0 0 0 0 0
0 0 0 0 0 0 0 0 0 0 0 0 0 0 0 0 0 0 0 0 0 0 0 -0 -0 -0 -0 -0 0 0 0 0 0 -0 -0 -0 -0 -0 0 0 0 0 0 0
0 0 0 0 0 0 0 0 0 -0 -0 -0 -0 -0 0 0 0 0 0 0 0 0 0 -0 -0 -0 -0 -0 -0 -0 -0 0 0 -0 -0 -0 0 0 0 0 0 0 0 0
0 0 0 0 0 0 0 0 -0 -0 -0 -0 -0 -0 0 0 0 0 0 0 0 0 0 -0 -0 -0 0 0 0 -0 -0 -0 -0 0 0 0 0 0 0 0 0 0 0 0
0 0 0 0 0 0 0 -0 -0 -0 -0 -0 -0 -0 0 0 0 0 0 0 0 -0 -0 -0 0 0 0 0 -0 -0 -0 -0 0 0 0 0 0 0 0 0 0 0 0 0
0 0 0 0 0 0 0 -0 -0 -0 -0 -0 -0 -0 -0 -0 -0 -0 -0 0 0 0 0 0 0 0 0 0 -0 -0 -0 -0 0 0 0 0 0 0 0 0 0 0 0 0
0 0 0 0 0 0 -0 -0 -0 -0 -0 -0 -0 -0 -0 -0 -0 -0 -0 -0 -0 0 0 0 0 0 0 0 0 -0 -0 0 0 0 0 0 0 0 0 0 0 0 0 0
0 0 0 0 0 0 -0 -0 -0 -0 -0 -0 -0 -0 -0 -0 -0 -0 -0 0 0 0 0 0 0 0 0 0 0 0 0 0 0 0 0 0 0 0 -0 -0 -0 0 0 0
0 0 0 0 0 0 0 0 -0 -0 -0 -0 -0 -0 -0 -0 -0 0 0 0 0 0 0 0 0 0 0 0 0 0 0 0 0 0 0 0 0 -0 -0 -0 -0 0 0 0
0 0 0 0 0 0 0 0 0 -0 -0 -0 -0 -0 -0 -0 0 0 0 0 0 0 0 0 0 0 0 0 0 0 0 0 0 0 0 0 0 -0 -0 -0 -0 -0 -0 -0
0 0 0 0 0 0 0 0 0 0 -0 -0 -0 -0 -0 0 0 0 0 0 0 0 0 0 0 0 0 0 0 0 0 0 0 0 0 0 0 -0 -0 -0 -0 -0 -0 -0
Wind_Speed
2 2 2 2 1 1 3 4 5 1 6 10 10 12 13 12 12 12 11 10 10 10 9 10 10 11 11 11 11 11 12 12 12 10 10 9 8 7 6 5 4 3 3 2
3 2 2 1 0 1 2 3 1 2 4 7 8 11 12 12 12 12 11 11 11 10 10 10 10 10 10 10 10 10 11 10 9 8 8 7 6 5 5 4 3 3 3 3
5 3 6 6 3 4 2 3 4 3 5 8 9 9 8 8 10 11 11 11 11 10 9 9 9 10 10 10 10 10 10 9 8 7 6 6 5 5 4 4 4 3 3 3
5 5 9 4 6 4 3 4 5 6 8 9 12 12 11 8 9 10 10 10 10 9 9 9 9 10 10 10 9 9 8 7 7 6 6 5 5 5 4 3 3 3 3 4
5 6 3 6 5 6 4 4 6 7 10 11 13 12 10 10 9 10 10 9 9 9 10 10 10 9 10 9 8 8 7 6 6 5 5 5 5 5 4 3 3 2 3 3
5 6 2 6 7 6 5 3 6 7 8 7 6 4 5 7 9 10 10 9 9 10 10 10 8 8 9 8 8 7 7 6 6 5 5 5 5 4 3 2 2 2 3 3
5 4 4 9 8 6 3 5 6 7 7 6 7 9 10 9 10 10 10 10 10 10 9 8 7 7 8 8 7 7 6 6 6 5 5 5 4 2 1 2 2 3 3 3
4 3 4 11 7 6 6 6 7 8 10 12 13 13 12 11 11 11 11 10 10 9 8 7 6 7 8 7 7 6 6 6 5 4 3 3 2 1 1 3 3 2 3 4
4 4 5 5 6 5 5 6 6 7 10 13 13 12 11 11 11 11 11 10 9 9 8 6 5 6 7 6 5 5 5 5 4 3 2 1 1 2 2 3 4 4 4 4
1 4 4 5 5 6 6 6 6 6 8 11 13 13 12 11 11 10 10 9 9 8 8 7 6 5 5 5 4 4 4 4 3 2 1 0 2 3 4 4 5 5 5 6
3 2 3 4 4 5 5 6 7 7 8 11 14 13 13 12 11 10 9 8 7 7 8 7 6 5 5 4 3 3 3 2 1 0 2 2 2 3 5 6 6 7 7 7
3 5 3 5 5 4 4 5 6 8 10 11 13 13 13 12 11 10 9 8 8 8 8 7 6 6 5 4 3 2 2 1 1 1 2 3 3 1 4 2 3 1 3 6
4 5 5 4 4 4 5 6 8 10 12 13 13 13 13 12 10 10 9 9 8 8 7 7 6 6 5 4 2 1 2 2 3 3 3 3 4 4 1 4 5 4 2 2
2 1 3 4 5 6 8 10 12 13 13 14 13 12 12 12 11 10 9 9 8 7 7 6 5 5 4 2 1 2 3 1 3 3 3 4 4 4 4 3 2 2 3 1
2 2 5 7 8 8 10 12 13 13 14 14 12 12 12 11 11 10 9 8 7 7 6 5 5 4 3 3 3 4 5 4 3 3 3 3 3 3 4 4 4 4 4 3
7 7 8 9 10 10 12 13 14 14 14 14 13 12 12 11 10 9 8 7 6 6 6 5 4 4 4 4 5 4 1 4 4 3 2 3 3 3 4 4 4 4 4 6
10 10 10 11 11 11 12 13 14 14 14 13 13 12 11 11 10 8 8 7 6 6 5 5 5 5 5 5 6 4 3 4 3 1 3 3 3 4 4 4 4 4 4 5
7 9 11 12 12 13 14 14 14 14 13 13 12 11 10 9 9 8 7 6 6 5 5 6 6 6 6 6 5 4 3 3 2 3 3 4 3 3 4 4 4 5 4 3
11 13 13 14 14 14 14 14 14 13 12 11 11 10 9 9 8 7 6 5 4 5 6 6 3 4 5 6 6 1 3 3 3 3 4 3 1 3 4 4 4 5 5 5
14 15 15 15 15 15 14 14 13 12 11 11 11 10 9 9 8 7 6 5 6 6 5 5 4 5 5 5 6 3 4 4 4 3 3 3 4 4 4 4 5 5 5 5
16 16 16 15 15 14 14 14 12 12 11 11 10 10 9 8 7 6 4 6 6 4 3 1 3 5 5 3 2 4 5 4 4 4 4 4 4 4 4 5 5 5 5 6
16 16 16 15 14 14 13 12 12 12 11 10 10 10 9 8 7 5 5 5 5 3 3 5 6 6 6 6 4 5 5 5 4 4 4 4 4 4 5 5 5 5 6 6
15 15 15 15 14 13 13 12 12 11 10 10 10 9 8 6 5 5 6 4 4 3 4 7 5 4 9 2 5 5 6 5 5 5 4 4 5 5 5 5 5 5 6 6
15 15 14 14 14 13 12 12 11 9 10 9 9 8 7 6 4 5 7 6 2 1 5 6 1 5 8 3 5 5 5 5 5 5 5 5 5 5 5 5 5 5 6 7
15 15 14 14 13 11 12 11 11 11 10 8 9 8 6 5 5 6 6 6 4 2 6 5 3 6 2 6 6 6 7 6 5 5 5 5 5 5 5 5 5 5 6 6
14 13 12 12 10 9 10 10 9 9 9 8 8 7 6 5 7 6 5 5 5 2 3 5 4 2 4 6 6 6 6 5 4 4 6 5 6 6 5 5 6 5 5 6
14 12 11 11 10 10 10 9 9 9 8 8 8 7 7 7 6 6 6 5 4 4 4 4 4 5 5 6 6 6 5 5 5 5 5 5 5 5 5 5 5 4 4 5
Wind_Direction
58 85 133 138 128 261 263 297 293 35 135 150 151 141 134 129 125 119 114 109 104 101 98 95 92 90 90 92 93 94 95 93 93 94 94 93 91 91 89 87 88 88 88 85
207 200 219 222 348 336 341 340 347 112 98 105 119 125 128 132 131 125 121 117 114 112 110 105 103 102 100 99 99 99 98 97 98 99 98 97 97 98 96 92 84 78 64 51
244 252 257 241 354 333 324 3 337 341 73 119 109 100 107 120 121 118 117 118 118 116 114 112 112 114 111 109 107 105 106 109 114 114 108 105 102 93 88 84 77 62 45 33
263 248 250 68 49 9 360 36 25 63 78 90 95 80 61 70 104 111 113 114 115 116 114 112 113 113 113 112 113 116 120 124 120 114 109 102 93 85 76 63 53 45 29 15
270 254 231 111 40 356 339 62 52 92 102 108 115 98 64 53 79 96 103 108 111 113 115 116 114 116 116 116 118 121 122 120 116 113 107 98 89 80 65 55 41 15 20 357
271 273 279 54 15 335 283 105 71 101 113 128 155 121 92 80 88 94 99 105 112 114 113 111 113 120 119 118 121 120 120 116 112 101 93 89 85 74 68 45 23 349 11 344
289 273 71 24 339 305 297 54 64 84 87 80 60 79 106 103 96 98 103 109 113 113 110 110 118 124 124 124 120 118 117 114 107 97 95 94 93 78 41 4 8 346 338 326
325 310 50 7 1 31 46 55 71 79 87 94 99 103 108 108 108 110 110 111 111 108 106 113 127 131 123 116 116 118 117 113 107 98 95 103 107 77 338 328 311 317 330 326
6 40 66 47 55 59 55 62 61 79 103 115 118 118 117 115 114 113 114 112 112 112 113 119 126 124 119 123 127 123 117 109 107 105 97 83 304 299 298 308 322 335 341 341
324 96 100 98 90 73 61 61 67 91 114 123 124 125 123 120 118 117 116 117 120 123 121 116 113 109 111 118 123 125 120 119 123 130 140 116 299 319 334 342 346 346 350 349
275 107 135 122 79 65 72 76 83 93 107 121 127 129 126 122 121 121 121 124 124 117 111 109 108 103 103 109 123 122 119 119 122 51 21 319 324 6 348 22 20 346 351 351
7 46 2 76 70 64 85 92 103 112 113 118 124 126 125 123 123 123 122 118 111 105 101 100 98 93 89 95 100 116 132 115 5 341 350 329 336 112 112 44 111 152 331 335
27 38 44 78 75 73 87 96 110 117 120 121 123 126 125 122 123 122 117 112 105 101 99 96 93 88 83 81 77 42 9 349 323 334 345 338 343 341 54 153 181 196 209 336
101 130 118 93 88 93 99 102 104 108 115 119 123 124 124 124 124 119 112 106 106 105 100 96 89 80 69 56 1 324 306 291 291 316 332 346 355 350 359 13 76 113 156 63
128 74 96 108 109 110 114 115 115 116 119 122 127 128 128 125 120 112 109 109 108 104 94 83 75 61 28 353 332 323 315 331 332 333 332 0 3 5 21 27 27 24 22 29
130 121 124 124 121 123 125 124 122 125 128 130 130 128 125 120 116 114 112 112 107 91 77 65 51 30 8 351 330 309 344 70 327 314 347 17 21 23 33 35 33 28 18 10
150 145 140 133 131 129 129 129 130 131 131 130 128 128 126 123 121 117 111 100 93 87 69 45 24 6 359 359 337 335 7 111 185 293 29 32 33 34 39 37 32 23 29 31
149 143 142 139 135 130 130 131 131 130 129 129 132 132 131 127 119 115 112 112 111 96 62 35 17 354 8 10 356 350 16 37 52 49 57 47 32 42 40 39 31 18 16 35
135 134 136 136 135 135 136 134 132 130 132 137 135 129 122 118 117 118 122 119 106 85 54 39 360 351 35 25 326 18 39 57 73 74 78 105 61 52 45 40 33 23 19 12
136 136 136 138 140 138 136 134 134 134 136 134 129 127 124 121 124 125 122 94 55 42 40 19 14 41 40 36 323 37 54 56 68 74 69 68 66 59 51 45 39 31 26 18
142 142 142 142 141 140 139 139 138 137 137 138 135 131 126 127 132 139 139 107 82 41 56 103 35 42 41 15 321 50 65 64 68 67 67 69 68 62 53 45 42 37 31 25
147 148 147 144 144 143 143 143 141 139 139 139 135 133 134 137 136 121 81 76 87 351 8 63 59 41 357 320 50 59 66 69 71 74 73 70 67 64 58 49 46 42 36 32
151 150 149 150 150 146 147 147 144 142 143 144 143 146 146 142 146 141 124 106 90 49 49 63 53 348 306 345 61 66 68 67 71 76 77 75 74 69 65 59 54 49 42 36
153 154 154 153 152 152 154 152 146 146 147 146 143 143 145 148 141 110 105 110 78 15 77 87 17 297 291 54 63 67 72 73 77 79 79 79 77 74 69 62 59 55 50 45
158 158 157 158 160 160 155 151 148 151 151 142 141 149 158 149 137 126 123 120 132 199 118 126 216 279 341 61 63 67 63 50 45 61 80 74 76 76 72 65 58 55 51 45
161 164 162 168 166 161 160 162 161 160 156 150 150 151 144 137 134 138 144 137 128 141 111 125 132 175 71 72 69 69 84 105 102 83 78 80 79 76 73 69 65 57 54 48
166 164 166 171 169 170 168 168 165 164 163 158 152 152 152 153 154 154 153 144 137 119 101 100 89 81 76 75 77 78 78 79 80 86 89 86 84 83 82 75 68 64 59 57